[[{"header":{"parameterUnit":"m.s-1","parameterCategory":1,"la1":30.2991,"la2":30.254,"lo1":-89.0895,"lo2":-89.0444,"dy":0.0017,"dx":0.0017,"nx":28,"ny":28,"refTime":"2023-09-11T21:00:00:Z","depth":0,"parameterNumber":2,"parameterNumberName":"U-component_of_WINDS"},"data":[0,0,0,0,0,0,0,0,0,0,0,0,0,0,0,0,0,0,0,0,0,0,0,0,0,0,0,0,0,0,0,0,0,0,0,0,0,0,0,0,0,0,0,0,0,0,0,0,0,0,0,0,0,0,0,0,0,0,1.9068,1.9068,0,1.9122,1.9123,1.9123,1.9075,1.9073,1.9071,1.9069,1.9126,1.9129,1.9132,0,0,0,0,0,0,0,0,0,0,0,0,0,1.8923,1.8926,1.9068,1.9068,1.9069,1.9122,1.9123,1.9123,1.9075,1.9073,1.9071,1.9068,1.9125,1.9129,1.9133,0,0,0,0,0,0,0,0,0,0,0,0,0,1.8982,1.8927,1.9067,1.9051,1.905,1.9122,1.9123,1.9124,1.9076,1.9073,1.907,1.9067,1.9123,1.9128,1.9133,1.9224,0,0,1.9149,1.9151,0,0,0,0,0,0,0,0,1.8979,1.8988,1.9053,1.9053,1.9052,1.9089,1.9092,1.9157,1.9077,1.9066,1.9069,1.9066,1.9116,1.9121,1.9138,1.9226,1.9229,1.9149,1.9152,1.9154,1.9156,0,0,0,0,0,0,0,1.8975,1.8985,1.9089,1.9054,1.9053,1.9042,1.9047,1.9104,1.9107,1.9067,1.9064,1.9071,1.9115,1.9133,1.9139,1.9229,1.9149,1.9153,1.9156,1.9158,1.9394,1.9397,0,0,0,0,0,0,1.8972,1.8982,1.9087,1.9091,1.9007,1.9047,1.9052,1.908,1.9106,1.9108,1.9073,1.9068,1.9126,1.9133,1.9141,1.9248,1.9154,1.9159,1.9162,1.9391,1.9395,1.9398,0,0,0,0,0,0,1.897,1.8982,1.9085,1.9036,1.9048,1.9052,1.9083,1.9083,1.9101,1.9111,1.9111,1.9091,1.9124,1.9134,1.9203,1.9249,1.9161,1.9166,1.9387,1.9392,1.9397,1.9463,0,0,0,0,0,0,1.8966,1.8982,1.9016,1.9037,1.9051,1.9147,1.9086,1.9086,1.9109,1.9104,1.9128,1.9129,1.9123,1.9196,1.9208,1.9255,1.917,1.9383,1.9389,1.9395,1.9457,1.947,1.9481,0,0,0,0,0,1.8961,1.9033,1.9018,1.9031,1.9093,1.9149,1.9157,1.9148,1.9113,1.9148,1.9154,1.9129,1.9242,1.9204,1.9217,1.9265,1.938,1.9387,1.9395,1.9451,1.9467,1.948,0,0,0,0,0,0,1.9017,1.9035,1.9019,1.9099,1.9123,1.9141,1.9184,1.9165,1.9199,1.9192,1.9179,1.9185,1.9258,1.9269,1.9225,1.9354,1.9306,1.9316,1.9344,1.9359,1.9371,1.9367,1.9174,0,0,0,0,0,1.9039,1.9083,1.9096,1.9166,1.9179,1.918,1.9204,1.9194,1.9218,1.9228,1.924,1.9265,1.9306,1.9333,1.9372,1.9458,1.9463,1.9498,1.951,1.952,1.9529,1.9575,1.9591,1.9422,1.9422,1.9422,0,0,1.9085,1.91,1.9128,1.9178,1.9195,1.9241,1.9188,1.9239,1.9273,1.9236,1.9302,1.9312,1.9338,1.9417,1.9452,1.9428,1.9577,1.9529,1.9537,1.9541,1.9584,1.96,1.9614,1.9427,1.9426,1.9426,0,0,1.9191,1.9207,1.9267,1.9285,1.9312,1.9312,1.9327,1.9347,1.9352,1.9418,1.9392,1.9432,1.9503,1.9523,1.9543,1.9657,1.9635,1.967,1.9732,1.9777,1.9791,1.9802,1.9843,1.9857,1.9679,1.9679,1.9679,0,1.9244,1.9312,1.93,1.9353,1.9375,1.9344,1.9405,1.9423,1.9461,1.9478,1.945,1.9539,1.9555,1.9637,1.9665,1.9682,1.9698,1.9667,1.979,1.9801,1.9812,1.985,1.9866,1.9683,1.9683,1.9682,1.9682,0,1.9376,1.9423,1.9469,1.9506,1.9533,1.959,1.9587,1.9617,1.9605,1.9608,1.9676,1.9694,1.9735,1.9754,1.9744,1.9835,1.9819,1.9791,1.9742,1.9832,1.9868,1.9883,1.9689,1.9688,1.9686,1.9685,0,0,1.9519,1.9549,1.9566,1.9582,1.961,1.9646,1.9701,1.9741,1.9767,1.9795,1.984,1.9901,1.9875,1.9898,1.9889,1.9929,2.0018,1.9896,1.9896,1.9917,2.012,2.014,2.0157,2.0003,2.0006,2.0008,2.0117,0,1.9626,1.9721,1.9713,1.9803,1.9846,1.9817,1.9865,1.9888,1.9892,1.993,1.9935,1.9978,1.9941,1.9954,1.9992,1.9999,2.0058,1.9991,2.0046,2.0048,2.0039,2.0176,2.0198,2.03,2.0131,2.0134,2.0135,0,1.9764,1.9796,1.989,1.9911,1.9929,1.9972,2.0008,2.0044,2.0069,2.0069,2.0094,2.0079,2.0134,2.0085,2.0161,2.0116,2.0138,2.0145,2.0148,2.0152,2.0097,2.0184,2.0332,2.0348,2.0157,2.0156,2.0154,0,1.9858,1.9925,1.999,2.0005,2.0031,2.0062,2.0074,2.0095,2.012,2.0152,2.0168,2.0206,2.0227,2.0257,2.0252,2.0216,2.033,2.028,2.0332,2.0332,2.0356,2.0355,2.051,2.0372,2.0371,2.0371,2.0371,0,1.9978,2.0038,2.0033,2.0073,2.0138,2.0127,2.0192,2.0201,2.022,2.0262,2.0239,2.0279,2.027,2.031,2.0306,2.037,2.038,2.0382,2.038,2.0383,2.0383,2.0397,2.039,2.0375,2.0374,2.0374,2.0373,0,2.0095,2.0094,2.0163,2.0182,2.0188,2.0235,2.0251,2.0288,2.0291,2.0344,2.0355,2.036,2.0405,2.0403,2.0455,2.0452,2.053,2.0521,2.0522,2.052,2.0572,2.0567,2.0741,2.0763,2.0611,2.0612,2.0614,0,2.0171,2.0216,2.0239,2.0265,2.0279,2.0321,2.0346,2.0337,2.0364,2.0395,2.043,2.0473,2.0506,2.058,2.0588,2.0627,2.0618,2.0676,2.0623,2.0625,2.0618,2.0615,2.0619,2.0686,2.0688,2.0689,2.0691,0,2.0307,2.0305,2.0341,2.0378,2.0408,2.0437,2.0463,2.0486,2.048,2.0511,2.0557,2.0583,2.0635,2.0678,2.0715,2.0728,2.0709,2.0707,2.0721,2.0725,2.0723,2.0724,2.055,2.0703,2.0702,2.0701,2.07,2.07,2.0406,2.0444,2.0466,2.0507,2.0526,2.0551,2.0587,2.0594,2.0632,2.0673,2.0666,2.0717,2.074,2.0789,2.0805,2.0845,2.0824,2.0844,2.0849,2.0855,2.086,2.0717,2.0852,2.0851,2.0851,2.0851,2.085,0,2.054,2.0553,2.0591,2.0628,2.0661,2.0639,2.0667,2.0696,2.0741,2.0764,2.0797,2.085,2.0891,2.0902,2.0942,2.0972,2.0964,2.0983,2.098,2.0983,2.0877,2.086,2.0988,2.0988,2.0988,2.0988,2.0988,2.0988,2.0614,2.0677,2.0677,2.0749,2.0761,2.0811,2.0828,2.0851,2.0869,2.0929,2.0963,2.0969,2.0988,2.1029,2.1066,2.1068,2.1084,2.1106,2.1105,2.1005,2.0991,2.0978,2.0962,2.111,2.111,2.1208,2.1209,2.1209]},{"header":{"parameterUnit":"m.s-1","parameterCategory":1,"la1":30.2991,"la2":30.254,"lo1":-89.0895,"lo2":-89.0444,"dy":0.0017,"dx":0.0017,"nx":28,"ny":28,"refTime":"2023-09-11T21:00:00:Z","depth":0,"parameterNumber":3,"parameterNumberName":"V-component_of_WINDS"},"data":[0,0,0,0,0,0,0,0,0,0,0,0,0,0,0,0,0,0,0,0,0,0,0,0,0,0,0,0,0,0,0,0,0,0,0,0,0,0,0,0,0,0,0,0,0,0,0,0,0,0,0,0,0,0,0,0,0,0,-0.835,-0.835,0,-0.8389,-0.8389,-0.839,-0.8389,-0.8388,-0.8388,-0.8387,-0.8428,-0.843,-0.8431,0,0,0,0,0,0,0,0,0,0,0,0,0,-0.8276,-0.8278,-0.835,-0.835,-0.8351,-0.8389,-0.8389,-0.839,-0.8389,-0.8388,-0.8387,-0.8387,-0.8427,-0.8429,-0.8431,0,0,0,0,0,0,0,0,0,0,0,0,0,-0.8311,-0.8278,-0.835,-0.8355,-0.8356,-0.8389,-0.8389,-0.839,-0.8389,-0.8388,-0.8387,-0.8386,-0.8427,-0.8429,-0.8432,-0.8463,0,0,-0.8439,-0.844,0,0,0,0,0,0,0,0,-0.8309,-0.8314,-0.8354,-0.8355,-0.8356,-0.8383,-0.8378,-0.8414,-0.8389,-0.8376,-0.8387,-0.8386,-0.8414,-0.8417,-0.8426,-0.8464,-0.8466,-0.8439,-0.844,-0.8442,-0.8442,0,0,0,0,0,0,0,-0.8307,-0.8312,-0.8365,-0.8354,-0.8355,-0.8356,-0.836,-0.8385,-0.8399,-0.8377,-0.8377,-0.8382,-0.8414,-0.8424,-0.8427,-0.8467,-0.8439,-0.8441,-0.8443,-0.8443,-0.8534,-0.8534,0,0,0,0,0,0,-0.8303,-0.831,-0.8364,-0.8367,-0.833,-0.8358,-0.8362,-0.8375,-0.8399,-0.8402,-0.8383,-0.8382,-0.842,-0.8424,-0.8429,-0.8467,-0.8441,-0.8444,-0.8445,-0.8533,-0.8534,-0.8535,0,0,0,0,0,0,-0.8301,-0.8308,-0.8363,-0.8338,-0.8345,-0.836,-0.8374,-0.8376,-0.8386,-0.8403,-0.8405,-0.839,-0.842,-0.8425,-0.8454,-0.8468,-0.8445,-0.8447,-0.8532,-0.8533,-0.8534,-0.8544,0,0,0,0,0,0,-0.8299,-0.8307,-0.8319,-0.8339,-0.8347,-0.8387,-0.8375,-0.8378,-0.839,-0.8389,-0.841,-0.8413,-0.842,-0.8451,-0.8457,-0.8471,-0.8449,-0.853,-0.8532,-0.8534,-0.8542,-0.8545,-0.8548,0,0,0,0,0,-0.8297,-0.832,-0.8319,-0.8326,-0.8361,-0.8388,-0.8392,-0.8399,-0.8391,-0.8403,-0.8414,-0.8412,-0.8466,-0.8454,-0.846,-0.8476,-0.8529,-0.8532,-0.8534,-0.8541,-0.8545,-0.8548,0,0,0,0,0,0,-0.8301,-0.8322,-0.8322,-0.8352,-0.8368,-0.8387,-0.8403,-0.8403,-0.8421,-0.842,-0.8428,-0.8433,-0.8462,-0.8472,-0.8458,-0.8508,-0.8497,-0.85,-0.85,-0.8504,-0.8507,-0.8504,-0.8451,0,0,0,0,0,-0.8306,-0.8325,-0.8343,-0.8368,-0.8376,-0.8388,-0.84,-0.8404,-0.8421,-0.8427,-0.844,-0.8457,-0.8478,-0.8492,-0.8512,-0.8544,-0.8549,-0.8558,-0.8561,-0.8563,-0.8566,-0.8585,-0.859,-0.8542,-0.8542,-0.8542,0,0,-0.8315,-0.8329,-0.8341,-0.8369,-0.8382,-0.8402,-0.8393,-0.8415,-0.8431,-0.8431,-0.8459,-0.8469,-0.8489,-0.852,-0.8534,-0.8529,-0.8581,-0.8566,-0.8568,-0.8569,-0.8588,-0.8592,-0.8596,-0.8543,-0.8543,-0.8543,0,0,-0.8343,-0.8355,-0.8378,-0.8391,-0.841,-0.8418,-0.8424,-0.8444,-0.845,-0.8479,-0.8479,-0.8498,-0.8534,-0.8548,-0.856,-0.8594,-0.8594,-0.8601,-0.8615,-0.8634,-0.8637,-0.8641,-0.8654,-0.8658,-0.8604,-0.8604,-0.8604,0,-0.8352,-0.8382,-0.8389,-0.8411,-0.8424,-0.8425,-0.8448,-0.8461,-0.8486,-0.8495,-0.8489,-0.8534,-0.8548,-0.8582,-0.8591,-0.86,-0.8607,-0.8598,-0.8636,-0.864,-0.8643,-0.8655,-0.866,-0.8604,-0.8604,-0.8604,-0.8604,0,-0.8393,-0.8414,-0.843,-0.8455,-0.8469,-0.8492,-0.8503,-0.8517,-0.852,-0.8529,-0.8558,-0.8574,-0.8598,-0.8607,-0.861,-0.8642,-0.8639,-0.8634,-0.8624,-0.8648,-0.866,-0.8665,-0.8605,-0.8605,-0.8605,-0.8605,0,0,-0.8424,-0.8452,-0.8458,-0.8469,-0.8492,-0.8509,-0.8532,-0.8555,-0.8567,-0.8585,-0.8605,-0.8635,-0.8632,-0.8645,-0.865,-0.8666,-0.8694,-0.866,-0.8661,-0.8666,-0.8731,-0.8734,-0.874,-0.8694,-0.8694,-0.8695,-0.873,0,-0.8454,-0.8495,-0.8502,-0.8538,-0.8558,-0.856,-0.858,-0.8596,-0.8606,-0.8625,-0.8635,-0.8657,-0.8651,-0.8659,-0.8675,-0.8687,-0.8707,-0.8684,-0.8713,-0.8714,-0.8708,-0.8746,-0.8749,-0.878,-0.8734,-0.8735,-0.8736,0,-0.8494,-0.8513,-0.8551,-0.8571,-0.858,-0.8598,-0.862,-0.8638,-0.8657,-0.8663,-0.8679,-0.8682,-0.8707,-0.8695,-0.8731,-0.8715,-0.8728,-0.8735,-0.8737,-0.874,-0.8726,-0.875,-0.8791,-0.8796,-0.8743,-0.8742,-0.8742,0,-0.8514,-0.8548,-0.8575,-0.8585,-0.8609,-0.8622,-0.8633,-0.8651,-0.8665,-0.8685,-0.8694,-0.8716,-0.8729,-0.8747,-0.8756,-0.8747,-0.8791,-0.878,-0.8797,-0.8797,-0.8806,-0.8806,-0.885,-0.8814,-0.8814,-0.8814,-0.8814,0,-0.8546,-0.8569,-0.8584,-0.8601,-0.8627,-0.8636,-0.8662,-0.8673,-0.8689,-0.8709,-0.8712,-0.873,-0.8742,-0.8763,-0.8771,-0.8799,-0.8804,-0.881,-0.8812,-0.881,-0.8809,-0.8818,-0.8816,-0.8815,-0.8815,-0.8815,-0.8814,0,-0.8572,-0.8583,-0.8613,-0.8633,-0.8639,-0.8658,-0.8676,-0.8693,-0.8703,-0.8727,-0.8734,-0.8749,-0.8773,-0.8785,-0.8815,-0.8821,-0.8853,-0.8853,-0.8846,-0.8847,-0.8864,-0.8862,-0.8916,-0.8923,-0.8882,-0.8882,-0.8883,0,-0.8592,-0.861,-0.8633,-0.8646,-0.8657,-0.8678,-0.8692,-0.8702,-0.8716,-0.874,-0.8754,-0.8779,-0.8799,-0.8838,-0.8852,-0.8876,-0.8877,-0.8894,-0.888,-0.8878,-0.8877,-0.8876,-0.8878,-0.8896,-0.8896,-0.8897,-0.8897,0,-0.8627,-0.8632,-0.8652,-0.8674,-0.869,-0.8708,-0.8726,-0.8737,-0.875,-0.8766,-0.8791,-0.8806,-0.8837,-0.8862,-0.8886,-0.8899,-0.89,-0.8901,-0.8907,-0.8905,-0.89,-0.8903,-0.8853,-0.89,-0.89,-0.8899,-0.8899,-0.8899,-0.8651,-0.8667,-0.8686,-0.8708,-0.8722,-0.8739,-0.8756,-0.8768,-0.8789,-0.8815,-0.8819,-0.8846,-0.8866,-0.8899,-0.8912,-0.8934,-0.893,-0.8937,-0.8939,-0.8941,-0.8942,-0.8897,-0.8938,-0.8938,-0.8938,-0.8938,-0.8938,0,-0.8686,-0.8699,-0.8719,-0.8744,-0.8762,-0.8761,-0.8781,-0.8797,-0.882,-0.8838,-0.8857,-0.8887,-0.8911,-0.8927,-0.8952,-0.8966,-0.8968,-0.8972,-0.8972,-0.8975,-0.8944,-0.8937,-0.8971,-0.8971,-0.8971,-0.8971,-0.8971,-0.8971,-0.8707,-0.8734,-0.8741,-0.8777,-0.8789,-0.8815,-0.8826,-0.8842,-0.8857,-0.8889,-0.8909,-0.8919,-0.8937,-0.8964,-0.8986,-0.8991,-0.9,-0.9005,-0.9009,-0.898,-0.8977,-0.8973,-0.8967,-0.9006,-0.9006,-0.9038,-0.9038,-0.9038]}]]